owner,sensor,date,latitude,longitude,air_pressure(mBar),qcFlag 
FIT,ioos:station:wmo:SIPF1:1,2015-12-01T19:15:00Z,27.8620,-80.4450,1017.0,11111222 
FIT,ioos:station:wmo:SIPF1:1,2015-12-01T19:30:00Z,27.8620,-80.4450,1017.0,11111222 
FIT,ioos:station:wmo:SIPF1:1,2015-12-01T19:45:00Z,27.8620,-80.4450,1017.0,11111222 
FIT,ioos:station:wmo:SIPF1:1,2015-12-01T20:00:00Z,27.8620,-80.4450,1016.0,11111222 
FIT,ioos:station:wmo:SIPF1:1,2015-12-01T20:15:00Z,27.8620,-80.4450,1016.0,11111222 
FIT,ioos:station:wmo:SIPF1:1,2015-12-01T20:30:00Z,27.8620,-80.4450,1016.0,11111222 
FIT,ioos:station:wmo:SIPF1:1,2015-12-01T20:45:00Z,27.8620,-80.4450,1016.0,11111222 
FIT,ioos:station:wmo:SIPF1:1,2015-12-01T21:00:00Z,27.8620,-80.4450,1016.0,11111222 
FIT,ioos:station:wmo:SIPF1:1,2015-12-01T21:15:00Z,27.8620,-80.4450,1016.0,11111222 
FIT,ioos:station:wmo:SIPF1:1,2015-12-01T21:30:00Z,27.8620,-80.4450,1016.0,11111222 
FIT,ioos:station:wmo:SIPF1:1,2015-12-01T21:45:00Z,27.8620,-80.4450,1016.0,11111222 
FIT,ioos:station:wmo:SIPF1:1,2015-12-01T22:00:00Z,27.8620,-80.4450,1016.0,11111222 
FIT,ioos:station:wmo:SIPF1:1,2015-12-01T22:15:00Z,27.8620,-80.4450,1017.0,11111222 
FIT,ioos:station:wmo:SIPF1:1,2015-12-01T22:30:00Z,27.8620,-80.4450,1017.0,11111222 
FIT,ioos:station:wmo:SIPF1:1,2015-12-01T22:45:00Z,27.8620,-80.4450,1017.0,11111222 
FIT,ioos:station:wmo:SIPF1:1,2015-12-01T23:00:00Z,27.8620,-80.4450,1016.0,11111222 
FIT,ioos:station:wmo:SIPF1:1,2015-12-01T23:15:00Z,27.8620,-80.4450,1017.0,11111222 
FIT,ioos:station:wmo:SIPF1:1,2015-12-01T23:30:00Z,27.8620,-80.4450,1017.0,11111222 
FIT,ioos:station:wmo:SIPF1:1,2015-12-01T23:45:00Z,27.8620,-80.4450,1017.0,11111222 
FIT,ioos:station:wmo:SIPF1:1,2015-12-02T00:00:00Z,27.8620,-80.4450,1017.0,11111222 
FIT,ioos:station:wmo:SIPF1:1,2015-12-02T00:15:00Z,27.8620,-80.4450,1017.0,11111222 
FIT,ioos:station:wmo:SIPF1:1,2015-12-02T00:30:00Z,27.8620,-80.4450,1017.0,11111222 
FIT,ioos:station:wmo:SIPF1:1,2015-12-02T00:45:00Z,27.8620,-80.4450,1017.0,11111222 
FIT,ioos:station:wmo:SIPF1:1,2015-12-02T01:00:00Z,27.8620,-80.4450,1017.0,11111222 
FIT,ioos:station:wmo:SIPF1:1,2015-12-02T01:15:00Z,27.8620,-80.4450,1017.0,11111222 
FIT,ioos:station:wmo:SIPF1:1,2015-12-02T01:30:00Z,27.8620,-80.4450,1017.0,11111222 
FIT,ioos:station:wmo:SIPF1:1,2015-12-02T01:45:00Z,27.8620,-80.4450,1017.0,11111222 
FIT,ioos:station:wmo:SIPF1:1,2015-12-02T02:00:00Z,27.8620,-80.4450,1017.0,11111222 
FIT,ioos:station:wmo:SIPF1:1,2015-12-02T02:15:00Z,27.8620,-80.4450,1017.0,11111222 
FIT,ioos:station:wmo:SIPF1:1,2015-12-02T02:30:00Z,27.8620,-80.4450,1017.0,11111222 
FIT,ioos:station:wmo:SIPF1:1,2015-12-02T02:45:00Z,27.8620,-80.4450,1017.0,11111222 
FIT,ioos:station:wmo:SIPF1:1,2015-12-02T03:00:00Z,27.8620,-80.4450,1017.0,11111222 
FIT,ioos:station:wmo:SIPF1:1,2015-12-02T03:15:00Z,27.8620,-80.4450,1017.0,11111222 
FIT,ioos:station:wmo:SIPF1:1,2015-12-02T03:30:00Z,27.8620,-80.4450,1017.0,11111222 
FIT,ioos:station:wmo:SIPF1:1,2015-12-02T03:45:00Z,27.8620,-80.4450,1017.0,11111222 
FIT,ioos:station:wmo:SIPF1:1,2015-12-02T04:00:00Z,27.8620,-80.4450,1017.0,11111222 
FIT,ioos:station:wmo:SIPF1:1,2015-12-02T04:15:00Z,27.8620,-80.4450,1017.0,11111222 
FIT,ioos:station:wmo:SIPF1:1,2015-12-02T04:30:00Z,27.8620,-80.4450,1017.0,11111222 
FIT,ioos:station:wmo:SIPF1:1,2015-12-02T04:45:00Z,27.8620,-80.4450,1017.0,11111222 
FIT,ioos:station:wmo:SIPF1:1,2015-12-02T05:00:00Z,27.8620,-80.4450,1017.0,11111222 
FIT,ioos:station:wmo:SIPF1:1,2015-12-02T05:15:00Z,27.8620,-80.4450,1017.0,11111222 
FIT,ioos:station:wmo:SIPF1:1,2015-12-02T05:30:00Z,27.8620,-80.4450,1017.0,11111222 
FIT,ioos:station:wmo:SIPF1:1,2015-12-02T05:45:00Z,27.8620,-80.4450,1017.0,11111222 
FIT,ioos:station:wmo:SIPF1:1,2015-12-02T06:00:00Z,27.8620,-80.4450,1017.0,11111222 
FIT,ioos:station:wmo:SIPF1:1,2015-12-02T06:15:00Z,27.8620,-80.4450,1017.0,11111222 
FIT,ioos:station:wmo:SIPF1:1,2015-12-02T06:30:00Z,27.8620,-80.4450,1017.0,11111222 
FIT,ioos:station:wmo:SIPF1:1,2015-12-02T06:45:00Z,27.8620,-80.4450,1016.0,11111222 
FIT,ioos:station:wmo:SIPF1:1,2015-12-02T07:00:00Z,27.8620,-80.4450,1016.0,11111222 
FIT,ioos:station:wmo:SIPF1:1,2015-12-02T07:15:00Z,27.8620,-80.4450,1016.0,11111222 
FIT,ioos:station:wmo:SIPF1:1,2015-12-02T07:30:00Z,27.8620,-80.4450,1016.0,11111222 
FIT,ioos:station:wmo:SIPF1:1,2015-12-02T07:45:00Z,27.8620,-80.4450,1016.0,11111222 
FIT,ioos:station:wmo:SIPF1:1,2015-12-02T08:00:00Z,27.8620,-80.4450,1016.0,11111222 
FIT,ioos:station:wmo:SIPF1:1,2015-12-02T08:15:00Z,27.8620,-80.4450,1016.0,11111222 
FIT,ioos:station:wmo:SIPF1:1,2015-12-02T08:30:00Z,27.8620,-80.4450,1016.0,11111222 
FIT,ioos:station:wmo:SIPF1:1,2015-12-02T08:45:00Z,27.8620,-80.4450,1016.0,11111222 
FIT,ioos:station:wmo:SIPF1:1,2015-12-02T09:00:00Z,27.8620,-80.4450,1016.0,11111222 
FIT,ioos:station:wmo:SIPF1:1,2015-12-02T09:15:00Z,27.8620,-80.4450,1016.0,11111222 
FIT,ioos:station:wmo:SIPF1:1,2015-12-02T09:30:00Z,27.8620,-80.4450,1016.0,11111222 
FIT,ioos:station:wmo:SIPF1:1,2015-12-02T09:45:00Z,27.8620,-80.4450,1016.0,11111222 
FIT,ioos:station:wmo:SIPF1:1,2015-12-02T10:00:00Z,27.8620,-80.4450,1016.0,11111222 
FIT,ioos:station:wmo:SIPF1:1,2015-12-02T10:15:00Z,27.8620,-80.4450,1016.0,11111222 
FIT,ioos:station:wmo:SIPF1:1,2015-12-02T10:30:00Z,27.8620,-80.4450,1016.0,11111222 
FIT,ioos:station:wmo:SIPF1:1,2015-12-02T10:45:00Z,27.8620,-80.4450,1016.0,11111222 
FIT,ioos:station:wmo:SIPF1:1,2015-12-02T11:00:00Z,27.8620,-80.4450,1016.0,11111222 
FIT,ioos:station:wmo:SIPF1:1,2015-12-02T11:15:00Z,27.8620,-80.4450,1016.0,11111222 
FIT,ioos:station:wmo:SIPF1:1,2015-12-02T11:30:00Z,27.8620,-80.4450,1016.0,11111222 
FIT,ioos:station:wmo:SIPF1:1,2015-12-02T11:45:00Z,27.8620,-80.4450,1016.0,11111222 
FIT,ioos:station:wmo:SIPF1:1,2015-12-02T12:00:00Z,27.8620,-80.4450,1016.0,11111222 
FIT,ioos:station:wmo:SIPF1:1,2015-12-02T12:15:00Z,27.8620,-80.4450,1016.0,11111222 
FIT,ioos:station:wmo:SIPF1:1,2015-12-02T12:30:00Z,27.8620,-80.4450,1017.0,11111222 
FIT,ioos:station:wmo:SIPF1:1,2015-12-02T12:45:00Z,27.8620,-80.4450,1017.0,11111222 
FIT,ioos:station:wmo:SIPF1:1,2015-12-02T13:00:00Z,27.8620,-80.4450,1017.0,11111222 
FIT,ioos:station:wmo:SIPF1:1,2015-12-02T13:15:00Z,27.8620,-80.4450,1017.0,11111222 
FIT,ioos:station:wmo:SIPF1:1,2015-12-02T13:30:00Z,27.8620,-80.4450,1017.0,11111222 
FIT,ioos:station:wmo:SIPF1:1,2015-12-02T13:45:00Z,27.8620,-80.4450,1017.0,11111222 
FIT,ioos:station:wmo:SIPF1:1,2015-12-02T14:00:00Z,27.8620,-80.4450,1017.0,11111222 
FIT,ioos:station:wmo:SIPF1:1,2015-12-02T14:15:00Z,27.8620,-80.4450,1017.0,11111222 
FIT,ioos:station:wmo:SIPF1:1,2015-12-02T14:30:00Z,27.8620,-80.4450,1017.0,11111222 
FIT,ioos:station:wmo:SIPF1:1,2015-12-02T14:45:00Z,27.8620,-80.4450,1017.0,11111222 
FIT,ioos:station:wmo:SIPF1:1,2015-12-02T15:00:00Z,27.8620,-80.4450,1017.0,11111222 
FIT,ioos:station:wmo:SIPF1:1,2015-12-02T15:15:00Z,27.8620,-80.4450,1017.0,11111222 
FIT,ioos:station:wmo:SIPF1:1,2015-12-02T15:30:00Z,27.8620,-80.4450,1017.0,11111222 
FIT,ioos:station:wmo:SIPF1:1,2015-12-02T15:45:00Z,27.8620,-80.4450,1016.0,11111222 
FIT,ioos:station:wmo:SIPF1:1,2015-12-02T16:00:00Z,27.8620,-80.4450,1016.0,11111222 
FIT,ioos:station:wmo:SIPF1:1,2015-12-02T16:15:00Z,27.8620,-80.4450,1016.0,11111222 
FIT,ioos:station:wmo:SIPF1:1,2015-12-02T16:30:00Z,27.8620,-80.4450,1016.0,11111222 
FIT,ioos:station:wmo:SIPF1:1,2015-12-02T16:45:00Z,27.8620,-80.4450,1016.0,11111222 
FIT,ioos:station:wmo:SIPF1:1,2015-12-02T17:00:00Z,27.8620,-80.4450,1015.0,11111222 
FIT,ioos:station:wmo:SIPF1:1,2015-12-02T17:15:00Z,27.8620,-80.4450,1015.0,11111222 
FIT,ioos:station:wmo:SIPF1:1,2015-12-02T17:30:00Z,27.8620,-80.4450,1015.0,11111222 
FIT,ioos:station:wmo:SIPF1:1,2015-12-02T17:45:00Z,27.8620,-80.4450,1015.0,11111222 
FIT,ioos:station:wmo:SIPF1:1,2015-12-02T18:00:00Z,27.8620,-80.4450,1015.0,11111222 
FIT,ioos:station:wmo:SIPF1:1,2015-12-02T18:15:00Z,27.8620,-80.4450,1014.0,11111222 
FIT,ioos:station:wmo:SIPF1:1,2015-12-02T18:30:00Z,27.8620,-80.4450,1014.0,11111222 
FIT,ioos:station:wmo:SIPF1:1,2015-12-02T18:45:00Z,27.8620,-80.4450,1014.0,11111222 
FIT,ioos:station:wmo:SIPF1:1,2015-12-02T19:00:00Z,27.8620,-80.4450,1014.0,11111222 
FIT,ioos:station:wmo:SIPF1:1,2015-12-02T19:15:00Z,27.8620,-80.4450,1013.0,11111222 
FIT,ioos:station:wmo:SIPF1:1,2015-12-02T19:30:00Z,27.8620,-80.4450,1013.0,11111222 
FIT,ioos:station:wmo:SIPF1:1,2015-12-02T19:45:00Z,27.8620,-80.4450,1013.0,11111222 
FIT,ioos:station:wmo:SIPF1:1,2015-12-02T20:00:00Z,27.8620,-80.4450,1013.0,11111222 
FIT,ioos:station:wmo:SIPF1:1,2015-12-02T20:15:00Z,27.8620,-80.4450,1013.0,11111222 
FIT,ioos:station:wmo:SIPF1:1,2015-12-02T20:30:00Z,27.8620,-80.4450,1013.0,11111222 
FIT,ioos:station:wmo:SIPF1:1,2015-12-02T20:45:00Z,27.8620,-80.4450,1013.0,11111222 
FIT,ioos:station:wmo:SIPF1:1,2015-12-02T21:00:00Z,27.8620,-80.4450,1014.0,11111222 
FIT,ioos:station:wmo:SIPF1:1,2015-12-02T21:15:00Z,27.8620,-80.4450,1014.0,11111222 
FIT,ioos:station:wmo:SIPF1:1,2015-12-02T21:30:00Z,27.8620,-80.4450,1014.0,11111222 
FIT,ioos:station:wmo:SIPF1:1,2015-12-02T21:45:00Z,27.8620,-80.4450,1014.0,11111222 
FIT,ioos:station:wmo:SIPF1:1,2015-12-02T22:00:00Z,27.8620,-80.4450,1014.0,11111222 
FIT,ioos:station:wmo:SIPF1:1,2015-12-02T22:15:00Z,27.8620,-80.4450,1014.0,11111222 
FIT,ioos:station:wmo:SIPF1:1,2015-12-02T22:30:00Z,27.8620,-80.4450,1014.0,11111222 
FIT,ioos:station:wmo:SIPF1:1,2015-12-02T22:45:00Z,27.8620,-80.4450,1014.0,11111222 
FIT,ioos:station:wmo:SIPF1:1,2015-12-02T23:00:00Z,27.8620,-80.4450,1014.0,11111222 
FIT,ioos:station:wmo:SIPF1:1,2015-12-02T23:15:00Z,27.8620,-80.4450,1014.0,11111222 
FIT,ioos:station:wmo:SIPF1:1,2015-12-02T23:30:00Z,27.8620,-80.4450,1014.0,11111222 
FIT,ioos:station:wmo:SIPF1:1,2015-12-02T23:45:00Z,27.8620,-80.4450,1014.0,11111222 
FIT,ioos:station:wmo:SIPF1:1,2015-12-03T00:00:00Z,27.8620,-80.4450,1015.0,11111222 
FIT,ioos:station:wmo:SIPF1:1,2015-12-03T00:15:00Z,27.8620,-80.4450,1015.0,11111222 
FIT,ioos:station:wmo:SIPF1:1,2015-12-03T00:30:00Z,27.8620,-80.4450,1015.0,11111222 
FIT,ioos:station:wmo:SIPF1:1,2015-12-03T00:45:00Z,27.8620,-80.4450,1015.0,11111222 
FIT,ioos:station:wmo:SIPF1:1,2015-12-03T01:00:00Z,27.8620,-80.4450,1015.0,11111222 
FIT,ioos:station:wmo:SIPF1:1,2015-12-03T01:15:00Z,27.8620,-80.4450,1015.0,11111222 
FIT,ioos:station:wmo:SIPF1:1,2015-12-03T01:30:00Z,27.8620,-80.4450,1015.0,11111222 
FIT,ioos:station:wmo:SIPF1:1,2015-12-03T01:45:00Z,27.8620,-80.4450,1015.0,11111222 
FIT,ioos:station:wmo:SIPF1:1,2015-12-03T02:00:00Z,27.8620,-80.4450,1015.0,11111222 
FIT,ioos:station:wmo:SIPF1:1,2015-12-03T02:15:00Z,27.8620,-80.4450,1015.0,11111222 
FIT,ioos:station:wmo:SIPF1:1,2015-12-03T02:30:00Z,27.8620,-80.4450,1015.0,11111222 
FIT,ioos:station:wmo:SIPF1:1,2015-12-03T02:45:00Z,27.8620,-80.4450,1016.0,11111222 
FIT,ioos:station:wmo:SIPF1:1,2015-12-03T03:00:00Z,27.8620,-80.4450,1015.0,11111222 
FIT,ioos:station:wmo:SIPF1:1,2015-12-03T03:15:00Z,27.8620,-80.4450,1015.0,11111222 
FIT,ioos:station:wmo:SIPF1:1,2015-12-03T03:30:00Z,27.8620,-80.4450,1015.0,11111222 
FIT,ioos:station:wmo:SIPF1:1,2015-12-03T03:45:00Z,27.8620,-80.4450,1015.0,11111222 
FIT,ioos:station:wmo:SIPF1:1,2015-12-03T04:00:00Z,27.8620,-80.4450,1015.0,11111222 
FIT,ioos:station:wmo:SIPF1:1,2015-12-03T04:15:00Z,27.8620,-80.4450,1015.0,11111222 
FIT,ioos:station:wmo:SIPF1:1,2015-12-03T04:30:00Z,27.8620,-80.4450,1015.0,11111222 
FIT,ioos:station:wmo:SIPF1:1,2015-12-03T04:45:00Z,27.8620,-80.4450,1015.0,11111222 
FIT,ioos:station:wmo:SIPF1:1,2015-12-03T05:00:00Z,27.8620,-80.4450,9999.0,11144222 
FIT,ioos:station:wmo:SIPF1:1,2015-12-03T05:15:00Z,27.8620,-80.4450,9999.0,11144222 
FIT,ioos:station:wmo:SIPF1:1,2015-12-03T05:30:00Z,27.8620,-80.4450,9999.0,11144222 
FIT,ioos:station:wmo:SIPF1:1,2015-12-03T05:45:00Z,27.8620,-80.4450,9999.0,11144222 
FIT,ioos:station:wmo:SIPF1:1,2015-12-03T06:00:00Z,27.8620,-80.4450,9999.0,11144222 
FIT,ioos:station:wmo:SIPF1:1,2015-12-03T06:15:00Z,27.8620,-80.4450,9999.0,11144222 
FIT,ioos:station:wmo:SIPF1:1,2015-12-07T05:00:00Z,27.8620,-80.4450,1021.0,11111222 
FIT,ioos:station:wmo:SIPF1:1,2015-12-07T05:15:00Z,27.8620,-80.4450,1021.0,11111222 
FIT,ioos:station:wmo:SIPF1:1,2015-12-07T05:30:00Z,27.8620,-80.4450,1021.0,11111222 
FIT,ioos:station:wmo:SIPF1:1,2015-12-07T05:45:00Z,27.8620,-80.4450,1020.0,11111222 
FIT,ioos:station:wmo:SIPF1:1,2015-12-07T06:00:00Z,27.8620,-80.4450,1020.0,11111222 
FIT,ioos:station:wmo:SIPF1:1,2015-12-07T06:15:00Z,27.8620,-80.4450,1020.0,11111222 
FIT,ioos:station:wmo:SIPF1:1,2015-12-07T06:30:00Z,27.8620,-80.4450,1020.0,11111222 
FIT,ioos:station:wmo:SIPF1:1,2015-12-07T06:45:00Z,27.8620,-80.4450,1020.0,11111222 
FIT,ioos:station:wmo:SIPF1:1,2015-12-07T07:00:00Z,27.8620,-80.4450,1020.0,11111222 
FIT,ioos:station:wmo:SIPF1:1,2015-12-07T07:15:00Z,27.8620,-80.4450,1020.0,11111222 
FIT,ioos:station:wmo:SIPF1:1,2015-12-07T07:30:00Z,27.8620,-80.4450,1019.0,11111222 
FIT,ioos:station:wmo:SIPF1:1,2015-12-07T07:45:00Z,27.8620,-80.4450,1019.0,11111222 
FIT,ioos:station:wmo:SIPF1:1,2015-12-07T08:00:00Z,27.8620,-80.4450,1019.0,11111222 
FIT,ioos:station:wmo:SIPF1:1,2015-12-07T08:15:00Z,27.8620,-80.4450,1019.0,11111222 
FIT,ioos:station:wmo:SIPF1:1,2015-12-07T08:30:00Z,27.8620,-80.4450,1019.0,11111222 
FIT,ioos:station:wmo:SIPF1:1,2015-12-07T08:45:00Z,27.8620,-80.4450,1019.0,11111222 
FIT,ioos:station:wmo:SIPF1:1,2015-12-07T09:00:00Z,27.8620,-80.4450,1019.0,11111222 
FIT,ioos:station:wmo:SIPF1:1,2015-12-07T09:15:00Z,27.8620,-80.4450,1019.0,11111222 
FIT,ioos:station:wmo:SIPF1:1,2015-12-07T09:30:00Z,27.8620,-80.4450,1019.0,11111222 
FIT,ioos:station:wmo:SIPF1:1,2015-12-07T09:45:00Z,27.8620,-80.4450,1019.0,11111222 
FIT,ioos:station:wmo:SIPF1:1,2015-12-07T10:00:00Z,27.8620,-80.4450,1019.0,11111222 
FIT,ioos:station:wmo:SIPF1:1,2015-12-07T10:15:00Z,27.8620,-80.4450,1019.0,11111222 
FIT,ioos:station:wmo:SIPF1:1,2015-12-07T10:30:00Z,27.8620,-80.4450,1019.0,11111222 
FIT,ioos:station:wmo:SIPF1:1,2015-12-07T10:45:00Z,27.8620,-80.4450,1019.0,11111222 
FIT,ioos:station:wmo:SIPF1:1,2015-12-07T11:00:00Z,27.8620,-80.4450,1019.0,11111222 
FIT,ioos:station:wmo:SIPF1:1,2015-12-07T11:15:00Z,27.8620,-80.4450,1019.0,11111222 
FIT,ioos:station:wmo:SIPF1:1,2015-12-07T11:30:00Z,27.8620,-80.4450,1019.0,11111222 
FIT,ioos:station:wmo:SIPF1:1,2015-12-07T11:45:00Z,27.8620,-80.4450,1020.0,11111222 
FIT,ioos:station:wmo:SIPF1:1,2015-12-07T12:00:00Z,27.8620,-80.4450,1020.0,11111222 
FIT,ioos:station:wmo:SIPF1:1,2015-12-07T12:15:00Z,27.8620,-80.4450,1020.0,11111222 
FIT,ioos:station:wmo:SIPF1:1,2015-12-07T12:30:00Z,27.8620,-80.4450,1020.0,11111222 
FIT,ioos:station:wmo:SIPF1:1,2015-12-07T12:45:00Z,27.8620,-80.4450,1020.0,11111222 
FIT,ioos:station:wmo:SIPF1:1,2015-12-07T13:00:00Z,27.8620,-80.4450,1020.0,11111222 
FIT,ioos:station:wmo:SIPF1:1,2015-12-07T13:15:00Z,27.8620,-80.4450,1020.0,11111222 
FIT,ioos:station:wmo:SIPF1:1,2015-12-07T13:30:00Z,27.8620,-80.4450,1020.0,11111222 
FIT,ioos:station:wmo:SIPF1:1,2015-12-07T13:45:00Z,27.8620,-80.4450,1020.0,11111222 
FIT,ioos:station:wmo:SIPF1:1,2015-12-07T14:00:00Z,27.8620,-80.4450,1020.0,11111222 
FIT,ioos:station:wmo:SIPF1:1,2015-12-07T14:15:00Z,27.8620,-80.4450,1020.0,11111222 
FIT,ioos:station:wmo:SIPF1:1,2015-12-07T14:30:00Z,27.8620,-80.4450,1020.0,11111222 
FIT,ioos:station:wmo:SIPF1:1,2015-12-07T14:45:00Z,27.8620,-80.4450,1020.0,11111222 
FIT,ioos:station:wmo:SIPF1:1,2015-12-07T15:00:00Z,27.8620,-80.4450,1020.0,11111222 
FIT,ioos:station:wmo:SIPF1:1,2015-12-07T15:15:00Z,27.8620,-80.4450,1020.0,11111222 
FIT,ioos:station:wmo:SIPF1:1,2015-12-07T15:30:00Z,27.8620,-80.4450,1020.0,11111222 
FIT,ioos:station:wmo:SIPF1:1,2015-12-07T15:45:00Z,27.8620,-80.4450,1020.0,11111222 
FIT,ioos:station:wmo:SIPF1:1,2015-12-07T16:00:00Z,27.8620,-80.4450,1020.0,11111222 
FIT,ioos:station:wmo:SIPF1:1,2015-12-07T16:15:00Z,27.8620,-80.4450,1020.0,11111222 
FIT,ioos:station:wmo:SIPF1:1,2015-12-07T16:30:00Z,27.8620,-80.4450,1020.0,11111222 
FIT,ioos:station:wmo:SIPF1:1,2015-12-07T16:45:00Z,27.8620,-80.4450,1020.0,11111222 
FIT,ioos:station:wmo:SIPF1:1,2015-12-07T17:00:00Z,27.8620,-80.4450,1020.0,11111222 
FIT,ioos:station:wmo:SIPF1:1,2015-12-07T17:15:00Z,27.8620,-80.4450,1019.0,11111222 
FIT,ioos:station:wmo:SIPF1:1,2015-12-07T17:30:00Z,27.8620,-80.4450,1019.0,11111222 
FIT,ioos:station:wmo:SIPF1:1,2015-12-07T17:45:00Z,27.8620,-80.4450,1019.0,11111222 
FIT,ioos:station:wmo:SIPF1:1,2015-12-07T18:00:00Z,27.8620,-80.4450,1018.0,11111222 
FIT,ioos:station:wmo:SIPF1:1,2015-12-07T18:15:00Z,27.8620,-80.4450,1018.0,11111222 
FIT,ioos:station:wmo:SIPF1:1,2015-12-07T18:30:00Z,27.8620,-80.4450,1018.0,11111222 
FIT,ioos:station:wmo:SIPF1:1,2015-12-07T19:45:00Z,27.8620,-80.4450,1017.0,11111222 
FIT,ioos:station:wmo:SIPF1:1,2015-12-08T20:00:00Z,27.8620,-80.4450,1017.0,11111222 
FIT,ioos:station:wmo:SIPF1:1,2015-12-08T20:30:00Z,27.8620,-80.4450,1017.0,11111222 
FIT,ioos:station:wmo:SIPF1:1,2015-12-08T20:45:00Z,27.8620,-80.4450,1017.0,11111222 
FIT,ioos:station:wmo:SIPF1:1,2015-12-08T21:15:00Z,27.8620,-80.4450,1017.0,11111222 
FIT,ioos:station:wmo:SIPF1:1,2015-12-08T21:30:00Z,27.8620,-80.4450,1017.0,11111222 
FIT,ioos:station:wmo:SIPF1:1,2015-12-08T21:45:00Z,27.8620,-80.4450,1017.0,11111222 
FIT,ioos:station:wmo:SIPF1:1,2015-12-08T22:00:00Z,27.8620,-80.4450,1017.0,11111222 
FIT,ioos:station:wmo:SIPF1:1,2015-12-08T22:15:00Z,27.8620,-80.4450,1017.0,11111222 
FIT,ioos:station:wmo:SIPF1:1,2015-12-08T22:30:00Z,27.8620,-80.4450,1017.0,11111222 
FIT,ioos:station:wmo:SIPF1:1,2015-12-08T22:45:00Z,27.8620,-80.4450,1017.0,11111222 
FIT,ioos:station:wmo:SIPF1:1,2015-12-08T23:00:00Z,27.8620,-80.4450,1017.0,11111222 
FIT,ioos:station:wmo:SIPF1:1,2015-12-08T23:15:00Z,27.8620,-80.4450,1017.0,11111222 
FIT,ioos:station:wmo:SIPF1:1,2015-12-08T23:30:00Z,27.8620,-80.4450,1017.0,11111222 
FIT,ioos:station:wmo:SIPF1:1,2015-12-08T23:45:00Z,27.8620,-80.4450,1017.0,11111222 
FIT,ioos:station:wmo:SIPF1:1,2015-12-09T00:00:00Z,27.8620,-80.4450,1017.0,11111222 
FIT,ioos:station:wmo:SIPF1:1,2015-12-09T00:15:00Z,27.8620,-80.4450,1018.0,11111222 
FIT,ioos:station:wmo:SIPF1:1,2015-12-09T00:30:00Z,27.8620,-80.4450,1018.0,11111222 
FIT,ioos:station:wmo:SIPF1:1,2015-12-09T00:45:00Z,27.8620,-80.4450,1017.0,11111222 
FIT,ioos:station:wmo:SIPF1:1,2015-12-09T01:00:00Z,27.8620,-80.4450,1017.0,11111222 
FIT,ioos:station:wmo:SIPF1:1,2015-12-09T01:15:00Z,27.8620,-80.4450,1018.0,11111222 
FIT,ioos:station:wmo:SIPF1:1,2015-12-09T01:30:00Z,27.8620,-80.4450,1018.0,11111222 
FIT,ioos:station:wmo:SIPF1:1,2015-12-09T01:45:00Z,27.8620,-80.4450,1018.0,11111222 
FIT,ioos:station:wmo:SIPF1:1,2015-12-09T02:00:00Z,27.8620,-80.4450,1018.0,11111222 
FIT,ioos:station:wmo:SIPF1:1,2015-12-09T02:15:00Z,27.8620,-80.4450,1018.0,11111222 
FIT,ioos:station:wmo:SIPF1:1,2015-12-09T02:30:00Z,27.8620,-80.4450,1018.0,11111222 
FIT,ioos:station:wmo:SIPF1:1,2015-12-09T02:45:00Z,27.8620,-80.4450,1018.0,11111222 
FIT,ioos:station:wmo:SIPF1:1,2015-12-09T03:00:00Z,27.8620,-80.4450,1018.0,11111222 
FIT,ioos:station:wmo:SIPF1:1,2015-12-09T03:15:00Z,27.8620,-80.4450,1018.0,11111222 
FIT,ioos:station:wmo:SIPF1:1,2015-12-09T03:30:00Z,27.8620,-80.4450,1018.0,11111222 
FIT,ioos:station:wmo:SIPF1:1,2015-12-09T03:45:00Z,27.8620,-80.4450,1018.0,11111222 
FIT,ioos:station:wmo:SIPF1:1,2015-12-09T04:00:00Z,27.8620,-80.4450,1018.0,11111222 
FIT,ioos:station:wmo:SIPF1:1,2015-12-09T04:15:00Z,27.8620,-80.4450,1017.0,11111222 
FIT,ioos:station:wmo:SIPF1:1,2015-12-09T04:30:00Z,27.8620,-80.4450,1017.0,11111222 
FIT,ioos:station:wmo:SIPF1:1,2015-12-09T04:45:00Z,27.8620,-80.4450,1017.0,11111222 
FIT,ioos:station:wmo:SIPF1:1,2015-12-09T05:00:00Z,27.8620,-80.4450,1017.0,11111222 
FIT,ioos:station:wmo:SIPF1:1,2015-12-09T05:15:00Z,27.8620,-80.4450,1017.0,11111222 
FIT,ioos:station:wmo:SIPF1:1,2015-12-09T05:30:00Z,27.8620,-80.4450,1017.0,11111222 
FIT,ioos:station:wmo:SIPF1:1,2015-12-09T05:45:00Z,27.8620,-80.4450,1017.0,11111222 
FIT,ioos:station:wmo:SIPF1:1,2015-12-09T06:00:00Z,27.8620,-80.4450,1017.0,11111222 
FIT,ioos:station:wmo:SIPF1:1,2015-12-09T06:15:00Z,27.8620,-80.4450,1017.0,11111222 
FIT,ioos:station:wmo:SIPF1:1,2015-12-09T06:30:00Z,27.8620,-80.4450,1017.0,11111222 
FIT,ioos:station:wmo:SIPF1:1,2015-12-09T06:45:00Z,27.8620,-80.4450,1017.0,11111222 
FIT,ioos:station:wmo:SIPF1:1,2015-12-09T07:00:00Z,27.8620,-80.4450,1017.0,11111222 
FIT,ioos:station:wmo:SIPF1:1,2015-12-09T07:15:00Z,27.8620,-80.4450,1017.0,11111222 
FIT,ioos:station:wmo:SIPF1:1,2015-12-09T07:30:00Z,27.8620,-80.4450,1017.0,11111222 
FIT,ioos:station:wmo:SIPF1:1,2015-12-09T07:45:00Z,27.8620,-80.4450,1016.0,11111222 
FIT,ioos:station:wmo:SIPF1:1,2015-12-09T08:00:00Z,27.8620,-80.4450,1016.0,11111222 
FIT,ioos:station:wmo:SIPF1:1,2015-12-09T08:15:00Z,27.8620,-80.4450,1016.0,11111222 
FIT,ioos:station:wmo:SIPF1:1,2015-12-09T08:30:00Z,27.8620,-80.4450,1016.0,11111222 
FIT,ioos:station:wmo:SIPF1:1,2015-12-09T08:45:00Z,27.8620,-80.4450,1016.0,11111222 
FIT,ioos:station:wmo:SIPF1:1,2015-12-09T09:00:00Z,27.8620,-80.4450,1016.0,11111222 
FIT,ioos:station:wmo:SIPF1:1,2015-12-09T09:15:00Z,27.8620,-80.4450,1016.0,11111222 
FIT,ioos:station:wmo:SIPF1:1,2015-12-09T09:30:00Z,27.8620,-80.4450,1016.0,11111222 
FIT,ioos:station:wmo:SIPF1:1,2015-12-09T09:45:00Z,27.8620,-80.4450,1016.0,11111222 
FIT,ioos:station:wmo:SIPF1:1,2015-12-09T10:00:00Z,27.8620,-80.4450,1016.0,11111222 
FIT,ioos:station:wmo:SIPF1:1,2015-12-09T10:15:00Z,27.8620,-80.4450,1016.0,11111222 
FIT,ioos:station:wmo:SIPF1:1,2015-12-09T10:30:00Z,27.8620,-80.4450,1016.0,11111222 
FIT,ioos:station:wmo:SIPF1:1,2015-12-09T10:45:00Z,27.8620,-80.4450,1016.0,11111222 
FIT,ioos:station:wmo:SIPF1:1,2015-12-09T11:00:00Z,27.8620,-80.4450,1016.0,11111222 
FIT,ioos:station:wmo:SIPF1:1,2015-12-09T11:15:00Z,27.8620,-80.4450,1017.0,11111222 
FIT,ioos:station:wmo:SIPF1:1,2015-12-09T11:30:00Z,27.8620,-80.4450,1017.0,11111222 
FIT,ioos:station:wmo:SIPF1:1,2015-12-09T11:45:00Z,27.8620,-80.4450,1017.0,11111222 
FIT,ioos:station:wmo:SIPF1:1,2015-12-09T12:00:00Z,27.8620,-80.4450,1017.0,11111222 
FIT,ioos:station:wmo:SIPF1:1,2015-12-09T12:15:00Z,27.8620,-80.4450,1017.0,11111222 
FIT,ioos:station:wmo:SIPF1:1,2015-12-09T12:30:00Z,27.8620,-80.4450,1017.0,11111222 
FIT,ioos:station:wmo:SIPF1:1,2015-12-09T12:45:00Z,27.8620,-80.4450,1017.0,11111222 
FIT,ioos:station:wmo:SIPF1:1,2015-12-09T13:00:00Z,27.8620,-80.4450,1018.0,11111222 
FIT,ioos:station:wmo:SIPF1:1,2015-12-09T13:15:00Z,27.8620,-80.4450,1018.0,11111222 
FIT,ioos:station:wmo:SIPF1:1,2015-12-09T13:30:00Z,27.8620,-80.4450,1018.0,11111222 
FIT,ioos:station:wmo:SIPF1:1,2015-12-09T13:45:00Z,27.8620,-80.4450,1018.0,11111222 
FIT,ioos:station:wmo:SIPF1:1,2015-12-09T14:00:00Z,27.8620,-80.4450,1018.0,11111222 
FIT,ioos:station:wmo:SIPF1:1,2015-12-09T14:15:00Z,27.8620,-80.4450,1018.0,11111222 
FIT,ioos:station:wmo:SIPF1:1,2015-12-09T14:30:00Z,27.8620,-80.4450,1018.0,11111222 
FIT,ioos:station:wmo:SIPF1:1,2015-12-09T14:45:00Z,27.8620,-80.4450,1018.0,11111222 
FIT,ioos:station:wmo:SIPF1:1,2015-12-09T15:00:00Z,27.8620,-80.4450,1018.0,11111222 
FIT,ioos:station:wmo:SIPF1:1,2015-12-09T15:15:00Z,27.8620,-80.4450,1018.0,11111222 
FIT,ioos:station:wmo:SIPF1:1,2015-12-09T15:30:00Z,27.8620,-80.4450,1018.0,11111222 
FIT,ioos:station:wmo:SIPF1:1,2015-12-09T15:45:00Z,27.8620,-80.4450,1018.0,11111222 
FIT,ioos:station:wmo:SIPF1:1,2015-12-09T16:00:00Z,27.8620,-80.4450,1018.0,11111222 
FIT,ioos:station:wmo:SIPF1:1,2015-12-09T16:15:00Z,27.8620,-80.4450,1018.0,11111222 
FIT,ioos:station:wmo:SIPF1:1,2015-12-09T16:30:00Z,27.8620,-80.4450,1018.0,11111222 
FIT,ioos:station:wmo:SIPF1:1,2015-12-09T16:45:00Z,27.8620,-80.4450,1017.0,11111222 
FIT,ioos:station:wmo:SIPF1:1,2015-12-09T17:00:00Z,27.8620,-80.4450,1017.0,11111222 
FIT,ioos:station:wmo:SIPF1:1,2015-12-09T17:15:00Z,27.8620,-80.4450,1017.0,11111222 
FIT,ioos:station:wmo:SIPF1:1,2015-12-09T17:30:00Z,27.8620,-80.4450,1017.0,11111222 
FIT,ioos:station:wmo:SIPF1:1,2015-12-09T17:45:00Z,27.8620,-80.4450,1017.0,11111222 
FIT,ioos:station:wmo:SIPF1:1,2015-12-09T18:00:00Z,27.8620,-80.4450,1016.0,11111222 